Showing default

CENTISPACE-1 S10, 62579

Orbit data source: Space-Track

CENTISPACE-1 S10, 62579 is a payload satellite owned by Centispace (CN) in LEO that was launched on Mon, 13 Jan 2025 UTC via a JIELONG-3 launch vehicle from the Yellow Sea Launch Area, China (YSLA). Payloads include a variety of satellites, spacecraft, and rockets equipped with specific instruments for various scientific and technological missions. These include communications satellites like Starlink; space stations such as the ISS; scientific satellites like the Hubble; Earth observation satellites from companies like Planet Labs, Umbra, and HawkEye 360; GPS; miniature CubeSats for education and research; and military/defense satellites.

Loading next visibility...
CENTISPACE-1 S10 details
Identifier
62579, 2025-007E
Orbit
LEO
Last TLE update10 hours ago
Origin
Flag of CNCentispace (CN / PRC)
ManufacturerDFH Shenzhen
MissionOperational spacecraft
Bus & MotorWK01, Unknown motor
Mass160 kg wet, 160 kg dry
Launch date (UTC)
2025-01-13 (1 month ago)
Launch vehicle
JIELONG-3
Launch site
Yellow Sea Launch Area, China (YSLA)
Object type
Payload
Rocket body
Debris
Shape & HBRUnknown
Radar Cross SectionMedium (>0.1 m² and <1 m²)

Expand to show TLE details & history

TLE from 10 hours ago
0 CENTISPACE-1 S10
1 62579U 25007E   25047.12425869  .00004552  00000-0  69707-3 0  9996
2 62579  54.9878 349.5450 0012315  23.5825 336.5736 14.75257485  5016
Epoch: 2025-02-16T02:58Z
Definitive object data (Epoch: 2025-02-16T02:58:55.95Z)
Latitude-0.0001°
Longitude158.44998°
Altitude637.468 km
Speed7.545 km/s
True Right ascension23h 18m 10s
True Declination0° 00' 00"
Sunlit
Object was in daylight at TLE epoch
Visualization TLE readout
Latitude-31.36458°
Longitude131.6892°
Altitude650.342 km
Speed7.534 km/s
Apparent Right ascension00h 03m 34s
Apparent Declination-44° 11' 53"
Sunlit
Object is in daylight
Visualization observer readout
Local Sidereal Time15:20:15
Azimuth113.327° SE
Elevation-53.787°
Doppler factor1
Orbital elements
Apogee altitude652.947 km
Perigee altitude635.651 km
Semi-major axis7,022.436 km
Eccentricity0.0012315
Inclination54.9878°
RAAN349.545°
Arg. of periapsis23.5825°
True anomaly336.51742°
Mean anomaly336.5736°
Eccentric anomaly336.54552°
Mean motion3.68817 °/min
BSTAR0.00069707
Orbital period97.61 mins
Loading maneuver chart data...
Loading historical data...
Loading historical data...
Loading historical data...
Loading historical data...
Loading historical data...
Loading historical data...
Loading historical data...

CENTISPACE-1 S10 Visibility forecast

Observer location: undefined°, undefined

Span
Click to sort rows by Start time (UTC) header in descending order
Start Az.
Max El. time (UTC)
Max El. Az.
Max El.
End time (UTC)
End Az.
4 mins2025-02-16 21:00:42.854Z150.433° SSE2025-02-16 21:02:42.854Z124.057° SE13.347°2025-02-16 21:04:42.854Z96.639° ESE
7 mins2025-02-16 22:40:42.854Z229.212° WSW2025-02-16 22:43:42.854Z285.029° WNW44.796°2025-02-16 22:47:42.854Z45.54° ENE
5 mins2025-02-17 00:23:42.854Z300.827° NW2025-02-17 00:25:42.854Z333.157° NNW19.497°2025-02-17 00:28:42.854Z19.425° NNE
4 mins2025-02-17 03:50:42.854Z359.45° N2025-02-17 03:51:42.854Z15.9° NNE18.178°2025-02-17 03:54:42.854Z61.442° ENE
8 mins2025-02-17 05:30:42.854Z318.321° NNW2025-02-17 05:34:42.854Z86.558° E42.332°2025-02-17 05:38:42.854Z126.287° SE
4 mins2025-02-17 07:13:42.854Z260.798° W2025-02-17 07:15:42.854Z230.075° WSW16.091°2025-02-17 07:17:42.854Z202.697° SW
|